Theta_e
358 353 353 356 354 353 352 354 360 362 362 362 361 360 359 355 352 350 347 344 340 336
356 356 355 359 358 355 357 355 360 362 361 361 360 359 357 352 350 346 342 338 336 333
354 355 356 357 357 358 357 358 359 360 360 360 359 357 355 351 349 343 337 334 334 334
354 354 355 355 357 358 359 358 358 359 359 359 358 356 353 351 347 341 337 334 334 334
354 354 353 354 356 358 358 359 358 358 358 358 357 355 351 348 344 340 336 334 332 332
351 352 352 354 356 357 358 358 357 357 355 355 355 353 351 348 343 340 337 334 331 331
353 355 353 356 358 356 359 358 357 357 356 355 355 353 350 346 343 340 336 334 331 331
358 359 360 360 360 358 359 359 361 359 356 356 354 351 350 345 341 337 334 333 331 330
360 360 360 361 360 362 359 360 361 359 358 354 351 341 339 342 339 335 333 330 330 331
356 357 358 360 362 361 359 360 359 358 358 356 355 334 334 336 338 332 334 332 329 328
359 357 357 358 359 361 360 354 357 358 356 354 350 331 330 333 341 335 334 332 330 329
359 359 359 359 359 361 359 357 356 356 350 348 346 328 328 331 336 332 330 329 331 332
360 359 358 361 362 360 352 356 355 347 344 335 336 327 324 324 329 328 325 325 326 326
359 362 362 364 364 357 351 354 345 340 338 338 336 330 322 322 322 322 321 319 318 319
Wind_Speed
14 11 11 11 8 8 9 9 10 10 9 9 9 8 7 6 6 6 5 5 4 3
13 13 12 12 11 9 9 8 10 12 11 11 10 10 9 6 7 6 6 6 5 4
16 15 14 12 12 12 10 11 11 12 13 12 11 10 10 7 7 8 6 5 6 5
15 15 14 13 13 12 11 11 12 13 13 13 12 12 10 9 8 9 7 6 7 7
14 14 15 15 15 13 14 13 13 13 13 13 13 12 12 12 10 11 11 10 8 8
15 16 16 16 16 15 14 14 13 13 14 14 14 14 13 13 12 12 11 10 10 10
16 17 18 16 15 16 14 15 15 15 14 15 16 16 15 14 13 11 11 10 9 9
13 14 13 13 15 16 15 15 15 15 16 16 15 14 16 16 15 14 13 12 11 11
12 13 14 14 15 15 16 16 15 17 17 17 13 16 18 18 15 16 15 14 13 11
13 15 16 15 15 16 17 16 19 18 17 19 18 19 25 23 14 13 15 15 14 14
13 14 14 14 16 16 15 14 14 15 16 15 15 21 26 27 16 13 17 16 15 15
14 16 14 14 15 13 13 12 12 11 10 10 10 8 18 22 13 15 14 11 12 13
11 12 14 13 13 11 10 11 8 8 7 10 8 17 10 10 14 9 10 10 11 14
8 10 13 13 11 10 11 11 10 12 12 15 13 12 24 23 9 6 11 5 8 8
Wind_Direction
204 205 207 203 199 201 199 200 193 199 198 198 201 197 191 186 189 183 189 188 209 222
201 210 210 202 200 202 204 199 197 194 199 201 201 198 185 190 189 188 181 172 183 225
201 206 208 201 205 204 199 201 196 201 202 198 197 195 194 188 186 189 188 186 179 199
201 204 207 208 208 208 205 200 203 201 204 203 199 195 195 199 188 195 188 185 188 194
205 205 204 210 210 207 206 201 205 204 205 204 202 196 197 196 195 197 195 191 189 196
206 204 209 212 213 206 206 208 208 204 204 204 202 199 201 200 198 202 202 196 196 192
213 210 210 209 208 208 206 205 207 207 205 206 204 201 198 197 197 199 201 200 202 197
227 228 219 218 208 203 210 209 200 200 209 210 207 206 200 195 193 193 193 194 199 199
234 226 227 221 216 211 201 209 209 204 199 206 212 201 193 192 191 192 192 191 190 187
230 226 221 218 216 220 217 207 203 206 205 206 208 184 184 194 192 188 196 194 188 185
256 239 232 224 221 219 220 217 217 217 215 217 208 182 186 189 199 194 198 192 191 193
276 263 250 235 230 227 229 220 216 216 211 217 258 234 206 189 195 197 190 185 186 191
293 267 258 251 240 229 223 222 194 173 162 159 147 136 106 340 351 246 184 178 179 196
337 295 270 257 245 214 213 204 180 186 176 169 190 168 157 134 158 163 308 188 168 193